TimeCST,TemperatureF,Dew PointF,Humidity,Sea Level PressureIn,VisibilityMPH,Wind Direction,Wind SpeedMPH,Gust SpeedMPH,PrecipitationIn,Events,Conditions,WindDirDegrees,DateUTC
12:53 AM,52.0,28.0,40,29.81,10.0,SW,4.6,-,N/A,,Clear,220,2012-02-22 06:53:00
1:53 AM,53.1,33.1,47,29.78,10.0,SW,5.8,-,N/A,,Clear,220,2012-02-22 07:53:00
2:53 AM,53.1,34.0,48,29.75,10.0,WSW,9.2,19.6,N/A,,Clear,240,2012-02-22 08:53:00
3:53 AM,52.0,37.9,59,29.74,10.0,WSW,6.9,-,N/A,,Clear,240,2012-02-22 09:53:00
4:53 AM,44.1,33.1,65,29.71,10.0,ESE,3.5,-,N/A,,Clear,110,2012-02-22 10:53:00
5:53 AM,53.1,44.1,71,29.70,10.0,SSW,8.1,-,N/A,,Clear,210,2012-02-22 11:53:00
6:53 AM,52.0,45.0,77,29.71,10.0,South,4.6,-,N/A,,Clear,180,2012-02-22 12:53:00
7:53 AM,54.0,46.0,75,29.71,10.0,Variable,4.6,-,N/A,,Clear,0,2012-02-22 13:53:00
8:53 AM,57.9,48.0,70,29.70,10.0,Variable,6.9,-,N/A,,Clear,0,2012-02-22 14:53:00
9:53 AM,60.1,46.0,60,29.66,10.0,WSW,9.2,-,N/A,,Clear,240,2012-02-22 15:53:00
10:53 AM,63.0,45.0,52,29.64,10.0,Calm,Calm,-,N/A,,Clear,0,2012-02-22 16:53:00
11:53 AM,66.9,41.0,39,29.61,10.0,SSW,8.1,-,N/A,,Clear,210,2012-02-22 17:53:00
12:53 PM,69.1,35.1,29,29.57,10.0,West,9.2,-,N/A,,Partly Cloudy,260,2012-02-22 18:53:00
1:53 PM,70.0,35.1,28,29.54,10.0,WSW,9.2,19.6,N/A,,Clear,240,2012-02-22 19:53:00
2:53 PM,70.0,28.0,21,29.52,10.0,WSW,12.7,25.3,N/A,,Clear,250,2012-02-22 20:53:00
3:53 PM,69.1,28.9,22,29.51,10.0,West,15.0,23.0,N/A,,Clear,270,2012-02-22 21:53:00
4:53 PM,66.0,30.9,27,29.52,10.0,West,13.8,21.9,N/A,,Clear,260,2012-02-22 22:53:00
5:53 PM,64.0,32.0,30,29.53,10.0,West,10.4,-,N/A,,Clear,260,2012-02-22 23:53:00
6:53 PM,62.1,32.0,32,29.55,10.0,West,8.1,-,N/A,,Clear,260,2012-02-23 00:53:00
7:53 PM,60.1,33.1,36,29.55,10.0,WSW,6.9,-,N/A,,Clear,240,2012-02-23 01:53:00
8:53 PM,59.0,34.0,39,29.54,10.0,SW,5.8,-,N/A,,Clear,220,2012-02-23 02:53:00
9:53 PM,55.9,34.0,44,29.53,10.0,SSE,3.5,-,N/A,,Clear,160,2012-02-23 03:53:00
10:53 PM,59.0,34.0,39,29.51,10.0,South,5.8,-,N/A,,Clear,180,2012-02-23 04:53:00
11:53 PM,61.0,30.9,32,29.48,10.0,SSW,8.1,-,N/A,,Clear,200,2012-02-23 05:53:00